Weather History for KGWB - August, 2014

Change the Weather History Date:

Wednesday, August 20, 2014

  Actual Average (KFWA) Record (KFWA)
Temperature  
Mean Temperature 74 °F 71 °F  
Max Temperature 84 °F 82 °F 101 °F (1962)
Min Temperature 64 °F 61 °F 46 °F (1908)
Degree Days  
Heating Degree Days 0 0  
Month to date heating degree days 0  
Since 1 June heating degree days 32  
Since 1 July heating degree days 3  
Cooling Degree Days 9 7  
Month to date cooling degree days 145  
Year to date cooling degree days 651  
Since 1 June cooling degree days 594  
Growing Degree Days 24 (Base 50)    
Moisture  
Dew Point 64 °F    
Average Humidity 73    
Maximum Humidity 94    
Minimum Humidity 45    
Precipitation  
Precipitation 0.00 in 0.11 in 3.40 in (2007)
Month to date precipitation 2.41  
Year to date precipitation 25.61  
Snow  
Snow 0.00 in 0.00 in 0.00 in (2002)
Month to date snowfall 0.0  
Since 1 June snowfall 0.0  
Since 1 July snowfall 0.0  
Snow Depth -    
Sea Level Pressure  
Sea Level Pressure 29.89 in    
Wind  
Wind Speed 3 mph (WSW)    
Max Wind Speed 12 mph    
Max Gust Speed 20 mph    
Visibility 9 miles    
Events      
T = Trace of Precipitation, MM = Missing Value Source: NWS Daily Summary

Daily Weather History Graph

Daily Weather History Graph

Search for Another Location

Airport or City:

Trip Planner

Search our weather history database for the weather conditions in past years. The results will help you decide how hot, cold, wet, or windy it might be!

Date:

Astronomy

Aug. 20, 2014 Rise Set
Actual Time 6:54 AM EDT 8:31 PM EDT
Civil Twilight 6:25 AM EDT 9:01 PM EDT
Nautical Twilight 5:49 AM EDT 9:36 PM EDT
Astronomical Twilight 5:11 AM EDT 10:14 PM EDT
Moon 2:32 AM EDT (8/20) 5:17 PM EDT (8/20)
Length of Visible Light 14h 35m
Length of Day
13h 37m
Waning Crescent, 21% of the Moon is Illuminated
Aug 20
Waning Crescent
Aug 25
New
Sep 2
First Quarter
Sep 8
Full
Sep 15
Last Quarter

Hourly Weather History & Observations

Time (EDT) Temp. Heat Index Dew Point Humidity Pressure Visibility Wind Dir Wind Speed Gust Speed Precip Events Conditions
12:15 AM 69.8 °F - 64.4 °F 83% 29.81 in 10.0 mi Calm Calm - N/A   Clear
12:35 AM 68.0 °F - 64.4 °F 88% 29.81 in 7.0 mi Calm Calm - N/A   Clear
12:55 AM 68.0 °F - 64.4 °F 88% 29.81 in 7.0 mi Calm Calm - N/A   Clear
1:35 AM 68.0 °F - 64.4 °F 88% 29.80 in 7.0 mi Calm Calm - N/A   Clear
1:55 AM 68.0 °F - 64.4 °F 88% 29.80 in 7.0 mi SSW 3.5 mph - N/A   Clear
2:15 AM 68.0 °F - 64.4 °F 88% 29.80 in 10.0 mi SW 5.8 mph - N/A   Clear
2:35 AM 68.0 °F - 62.6 °F 83% 29.80 in 10.0 mi SW 3.5 mph - N/A   Clear
2:55 AM 68.0 °F - 62.6 °F 83% 29.80 in 10.0 mi SW 4.6 mph - N/A   Clear
3:15 AM 68.0 °F - 62.6 °F 83% 29.81 in 10.0 mi SW 4.6 mph - N/A   Clear
3:35 AM 68.0 °F - 62.6 °F 83% 29.81 in 10.0 mi SW 4.6 mph - N/A   Clear
3:55 AM 68.0 °F - 62.6 °F 83% 29.81 in 10.0 mi SW 4.6 mph - N/A   Clear
4:15 AM 66.2 °F - 62.6 °F 88% 29.82 in 10.0 mi SW 3.5 mph - N/A   Clear
4:35 AM 66.2 °F - 62.6 °F 88% 29.83 in 10.0 mi Calm Calm - N/A   Clear
4:55 AM 66.2 °F - 62.6 °F 88% 29.83 in 10.0 mi WSW 3.5 mph - N/A   Clear
5:15 AM 64.4 °F - 62.6 °F 94% 29.83 in 10.0 mi WSW 3.5 mph - N/A   Clear
5:35 AM 64.4 °F - 62.6 °F 94% 29.83 in 7.0 mi SSW 3.5 mph - N/A   Clear
5:55 AM 64.4 °F - 62.6 °F 94% 29.83 in 7.0 mi Calm Calm - N/A   Clear
6:15 AM 64.4 °F - 62.6 °F 94% 29.84 in 7.0 mi SW 3.5 mph - N/A   Clear
6:35 AM 64.4 °F - 62.6 °F 94% 29.85 in 5.0 mi SW 3.5 mph - N/A   Clear
6:55 AM 64.4 °F - 62.6 °F 94% 29.85 in 5.0 mi SW 3.5 mph - N/A   Clear
7:15 AM 64.4 °F - 62.6 °F 94% 29.86 in 3.0 mi SW 3.5 mph - N/A   Clear
7:35 AM 64.4 °F - 62.6 °F 94% 29.86 in 3.0 mi Calm Calm - N/A   Clear
7:55 AM 64.4 °F - 62.6 °F 94% 29.87 in 4.0 mi Calm Calm - N/A   Clear
8:15 AM 66.2 °F - 62.6 °F 88% 29.87 in 4.0 mi WSW 3.5 mph - N/A   Clear
8:35 AM 68.0 °F - 64.4 °F 88% 29.88 in 5.0 mi West 3.5 mph - N/A   Clear
8:55 AM 69.8 °F - 64.4 °F 83% 29.88 in 7.0 mi West 4.6 mph - N/A   Clear
9:15 AM 69.8 °F - 64.4 °F 83% 29.88 in 7.0 mi West 3.5 mph - N/A   Clear
9:35 AM 71.6 °F - 64.4 °F 78% 29.89 in 10.0 mi West 4.6 mph - N/A   Clear
9:55 AM 71.6 °F - 64.4 °F 78% 29.89 in 10.0 mi West 4.6 mph - N/A   Clear
10:15 AM 73.4 °F - 66.2 °F 78% 29.90 in 10.0 mi West 4.6 mph - N/A   Clear
10:35 AM 75.2 °F - 66.2 °F 73% 29.90 in 10.0 mi Calm Calm - N/A   Clear
10:55 AM 75.2 °F - 66.2 °F 73% 29.91 in 10.0 mi Calm Calm - N/A   Clear
11:15 AM 77.0 °F - 66.2 °F 69% 29.91 in 10.0 mi WSW 4.6 mph - N/A   Clear
11:35 AM 78.8 °F - 66.2 °F 65% 29.91 in 10.0 mi West 3.5 mph - N/A   Clear
11:55 AM 78.8 °F - 66.2 °F 65% 29.91 in 10.0 mi Calm Calm - N/A   Clear
12:15 PM 80.6 °F 82.3 °F 64.4 °F 58% 29.93 in 10.0 mi West 5.8 mph - N/A   Scattered Clouds
12:35 PM 80.6 °F 82.3 °F 64.4 °F 58% 29.91 in 10.0 mi West 5.8 mph - N/A   Scattered Clouds
12:55 PM 78.8 °F - 62.6 °F 57% 29.93 in 10.0 mi WSW 8.1 mph - N/A   Clear
1:15 PM 82.4 °F 83.4 °F 62.6 °F 51% 29.93 in 10.0 mi SW 9.2 mph - N/A   Scattered Clouds
1:35 PM 80.6 °F 81.8 °F 62.6 °F 54% 29.94 in 10.0 mi WSW 6.9 mph - N/A   Clear
1:55 PM 80.6 °F 81.8 °F 62.6 °F 54% 29.95 in 10.0 mi WSW 8.1 mph 17.3 mph N/A   Clear
2:15 PM 82.4 °F 82.9 °F 60.8 °F 48% 29.95 in 10.0 mi WSW 10.4 mph 18.4 mph N/A   Clear
2:35 PM 82.4 °F 82.9 °F 60.8 °F 48% 29.95 in 10.0 mi West 8.1 mph 17.3 mph N/A   Clear
2:55 PM 82.4 °F 82.9 °F 60.8 °F 48% 29.95 in 10.0 mi West 11.5 mph 19.6 mph N/A   Clear
3:15 PM 84.2 °F 84.4 °F 60.8 °F 45% 29.93 in 10.0 mi West 11.5 mph 17.3 mph N/A   Clear
3:35 PM 84.2 °F 84.4 °F 60.8 °F 45% 29.93 in 10.0 mi West 11.5 mph - N/A   Clear
3:55 PM 84.2 °F 84.4 °F 60.8 °F 45% 29.93 in 10.0 mi West 9.2 mph 18.4 mph N/A   Clear
4:15 PM 84.2 °F 85.0 °F 62.6 °F 48% 29.92 in 10.0 mi West 9.2 mph - N/A   Clear
4:55 PM 84.2 °F 85.0 °F 62.6 °F 48% 29.93 in 10.0 mi West 10.4 mph 17.3 mph N/A   Clear
5:15 PM 80.6 °F 81.8 °F 62.6 °F 54% 29.92 in 10.0 mi West 5.8 mph - N/A   Clear
5:35 PM 82.4 °F 83.4 °F 62.6 °F 51% 29.92 in 10.0 mi West 4.6 mph - N/A   Clear
5:55 PM 84.2 °F 85.0 °F 62.6 °F 48% 29.91 in 10.0 mi West 4.6 mph - N/A   Clear
6:15 PM 82.4 °F 83.4 °F 62.6 °F 51% 29.90 in 10.0 mi WSW 3.5 mph - N/A   Clear
6:35 PM 82.4 °F 83.4 °F 62.6 °F 51% 29.90 in 10.0 mi West 10.4 mph - N/A   Clear
6:55 PM 82.4 °F 83.9 °F 64.4 °F 54% 29.89 in 10.0 mi Calm Calm - N/A   Clear
7:15 PM 80.6 °F 82.3 °F 64.4 °F 58% 29.89 in 10.0 mi Calm Calm - N/A   Clear
7:35 PM 80.6 °F 82.3 °F 64.4 °F 58% 29.90 in 10.0 mi Calm Calm - N/A   Clear
7:55 PM 78.8 °F - 64.4 °F 61% 29.91 in 10.0 mi Calm Calm - N/A   Clear
8:15 PM 78.8 °F - 64.4 °F 61% 29.91 in 10.0 mi Calm Calm - N/A   Clear
8:35 PM 73.4 °F - 66.2 °F 78% 29.92 in 10.0 mi Calm Calm - N/A   Clear
8:55 PM 73.4 °F - 66.2 °F 78% 29.93 in 10.0 mi Calm Calm - N/A   Scattered Clouds
9:15 PM 75.2 °F - 66.2 °F 73% 29.95 in 10.0 mi Calm Calm - N/A   Scattered Clouds
9:35 PM 73.4 °F - 66.2 °F 78% 29.95 in 10.0 mi Calm Calm - N/A   Clear
9:55 PM 73.4 °F - 66.2 °F 78% 29.96 in 10.0 mi Calm Calm - N/A   Clear
10:15 PM 71.6 °F - 66.2 °F 83% 29.97 in 10.0 mi Calm Calm - N/A   Clear
10:35 PM 71.6 °F - 66.2 °F 83% 29.98 in 10.0 mi Calm Calm - N/A   Clear
10:55 PM 71.6 °F - 68.0 °F 88% 29.98 in 10.0 mi Calm Calm - N/A   Clear
11:15 PM 71.6 °F - 68.0 °F 88% 29.98 in 10.0 mi Calm Calm - N/A   Scattered Clouds
11:35 PM 73.4 °F - 66.2 °F 78% 29.99 in 10.0 mi Calm Calm - N/A   Scattered Clouds
11:55 PM 75.2 °F - 64.4 °F 69% 30.00 in 10.0 mi Calm Calm - N/A   Clear